Hourly Data Report for October 03, 2016

All times are specified in Local Standard Time (LST). Add 1 hour to adjust for Daylight Saving Time where and when it is observed.

HALL BEACH A
NUNAVUT

68°46'33.000" N
81°14'33.000" W
9.10 m
2402354
71293
YUX

Download Data

Hourly Data (October 2016)
Hourly Data Report for October 3, 2016
Temp Definition
°C
Dew Point Temp Definition
°C
Rel Hum Definition
%
Wind Dir Definition
10's deg

Wind Spd Definition
km/h
Visibility Definition
km
Stn Press Definition
kPa
Hmdx Definition


Wind Chill Definition


Weather Definition


TIME
00:00 Legend Double Dagger -2.4 -4.1 88 28 18 16.1 101.30   -8 LegendNANA
01:00 Legend Double Dagger -2.4 -4.6 85 28 28 16.1 101.31   -9 LegendNANA
02:00 Legend Double Dagger -2.9 -4.5 89 30 21 16.1 101.24   -9 LegendNANA
03:00 Legend Double Dagger -2.9 -4.6 88 29 32 16.1 101.17   -10 LegendNANA
04:00 Legend Double Dagger -3.0 -4.9 87 27 22 16.1 101.14   -9 LegendNANA
05:00 Legend Double Dagger -3.2 -5.0 87 26 15 16.1 101.09   -8 LegendNANA
06:00 Legend Double Dagger -3.2 -4.9 88 23 15 16.1 101.05   -8 LegendNANA
07:00 Legend Double Dagger -3.7 -5.2 89 27 21 16.1 100.97   -10 LegendNANA
08:00 Legend Double Dagger -3.2 -4.6 90 23 17 16.1 100.96   -9 LegendNANA
09:00 Legend Double Dagger -2.6 -4.3 88 24 18 16.1 100.90   -8 LegendNANA
10:00 Legend Double Dagger -1.7 -4.2 83 25 21 16.1 100.80   -8 LegendNANA
11:00 Legend Double Dagger -1.2 -4.1 81 28 9 16.1 100.74   -4 LegendNANA
12:00 Legend Double Dagger -1.3 -4.8 77   0 16.1 100.67     LegendNANA
13:00 Legend Double Dagger -1.3 -4.4 80 13 5 14.5 100.59   -3 LegendNANA
14:00 Legend Double Dagger -0.3 -3.2 81 17 17 16.1 100.47   -5 LegendNANA
15:00 Legend Double Dagger -0.5 -3.4 81 18 15 16.1 100.38   -5 LegendNANA
16:00 Legend Double Dagger -0.9 -4.1 79 18 13 16.1 100.29   -5 LegendNANA
17:00 Legend Double Dagger -0.9 -4.1 79 20 11 16.1 100.23   -5 LegendNANA
18:00 Legend Double Dagger -1.2 -3.9 82 22 9 16.1 100.16   -4 LegendNANA
19:00 Legend Double Dagger -1.2 -3.8 83 19 4 16.1 100.10   -3 LegendNANA
20:00 Legend Double Dagger -0.7 -3.4 82 16 13 16.1 99.99   -5 LegendNANA
21:00 Legend Double Dagger -0.9 -4.5 77 17 9 16.1 99.93   -4 Snow
22:00 Legend Double Dagger -1.2 -4.0 82 11 15 16.1 99.82   -6 Snow
23:00 Legend Double Dagger -0.5 -1.4 94 12 22 16.1 99.72   -6 Snow

Notes on Data Quality.

Legend

  • E = Estimated
  • M = Missing
  • NA = Not Available
  • ‡ = Partner data that is not subject to review by the National Climate Archives
Date modified: